Location: Peebles
(55.6412°N, 3.1714°W)
Time: 16:07:39
(UTC+01:00)

CZ-4 R/B - Pass Details

Date: 26 September 2021
Orbit: 530 x 596 km, 97.8° (Epoch: 18 October)

Event Time Altitude Azimuth Distance (km) Brightness Sun altitude
Rises 20:45:10 0° 199° (SSW) 2,664 4.8 -15.3°
Reaches altitude 10° 20:47:36 10° 214° (SW) 1,780 4.1 -15.6°
Maximum altitude 20:50:41 23° 268° (W) 1,182 3.8 -16.0°
Drops below altitude 10° 20:53:47 10° 321° (NW) 1,802 4.9 -16.4°
Sets 20:56:17 0° 336° (NNW) 2,707 5.6 -16.8°
